Morgantown, WV

5:34 PM EST on January 22, 2017 (GMT -0500)
Morgantown Municipal-Hart

Weather History for KMGW - December, 1998

Change the Weather History Date:

Friday, December 4, 1998

  Actual Average Record
Temperature  
Mean Temperature 60 °F 38 °F  
Max Temperature 64 °F 46 °F 69 °F (2012)
Min Temperature 57 °F 30 °F 3 °F (1966)
Degree Days  
Heating Degree Days 4 27  
Month to date heating degree days 106  
Since 1 July heating degree days 1154  
Cooling Degree Days 0 0  
Month to date cooling degree days 0  
Year to date cooling degree days 814  
Growing Degree Days 10 (Base 50)    
Moisture  
Dew Point 56 °F    
Average Humidity 83    
Maximum Humidity 100    
Minimum Humidity 68    
Precipitation  
Precipitation 0.00 in 0.10 in 0.67 in (1968)
Month to date precipitation 0.41  
Year to date precipitation 39.33  
Sea Level Pressure  
Sea Level Pressure 30.10 in    
Wind  
Wind Speed 7 mph (SSW)    
Max Wind Speed 14 mph    
Max Gust Speed -    
Visibility 7 miles    
Events Rain    
T = Trace of Precipitation, MM = Missing Value Source: NWS Daily Summary

Daily Weather History Graph

Daily Weather History Graph

Search for Another Location

Airport or City:

Trip Planner

Search our weather history database for the weather conditions in past years. The results will help you decide how hot, cold, wet, or windy it might be!

Date:

Astronomy

Dec. 04, 1998 Rise Set
Actual Time 7:24 AM EST 4:55 PM EST
Civil Twilight 6:54 AM EST 5:25 PM EST
Nautical Twilight 6:20 AM EST 5:59 PM EST
Astronomical Twilight 5:48 AM EST 6:31 PM EST
Moon 6:22 PM EST (12/4) 8:10 AM EST (12/4)
Length of Visible Light 10h 31m
Length of Day
9h 31m
Full, 98% of the Moon is Illuminated
Dec 4
Full
Dec 10
Last Quarter
Dec 18
New
Dec 26
First Quarter
Jan 1
Full

Hourly Weather History & Observations

Time (EST) Temp. Dew Point Humidity Pressure Visibility Wind Dir Wind Speed Gust Speed Precip Events Conditions
12:50 AM 64.4 °F 53.6 °F 68% 30.03 in 8.0 mi SW 11.5 mph - N/A Rain Light Rain Showers
1:50 AM 62.6 °F 55.4 °F 77% 30.04 in 10.0 mi SW 5.8 mph - N/A   Overcast
2:50 AM 62.6 °F 55.4 °F 77% 30.05 in 10.0 mi SSW 5.8 mph - N/A   Overcast
3:50 AM 62.6 °F 53.6 °F 72% 30.05 in 10.0 mi SW 5.8 mph - N/A   Overcast
4:50 AM 62.6 °F 53.6 °F 72% 30.05 in 10.0 mi SSW 8.1 mph - N/A   Overcast
5:50 AM 64.4 °F 53.6 °F 68% 30.06 in 10.0 mi SW 8.1 mph - N/A   Overcast
6:48 AM 64.4 °F 53.6 °F 68% 30.08 in 8.0 mi WSW 8.1 mph - N/A   Overcast
7:45 AM 62.6 °F 55.4 °F 77% 30.10 in 8.0 mi WSW 13.8 mph - N/A   Overcast
8:45 AM 62.6 °F 55.4 °F 77% 30.12 in 8.0 mi WSW 5.8 mph - N/A   Overcast
9:45 AM 64.4 °F 55.4 °F 73% 30.13 in 10.0 mi SSW 9.2 mph - N/A   Overcast
10:45 AM 62.6 °F 55.4 °F 77% 30.14 in 10.0 mi SW 9.2 mph - N/A   Overcast
11:50 AM 62.6 °F 57.2 °F 82% 30.14 in 5.0 mi SW 6.9 mph - N/A   Overcast
12:45 PM 60.8 °F 57.2 °F 88% 30.12 in 2.0 mi SW 9.2 mph - N/A Rain Light Rain
1:00 PM 60.8 °F 57.2 °F 88% 30.12 in 3.0 mi SW 6.9 mph - N/A Rain Light Rain
1:45 PM 60.8 °F 57.2 °F 88% 30.10 in 4.0 mi SSW 6.9 mph - N/A   Light Drizzle
2:45 PM 62.6 °F 57.2 °F 82% 30.10 in 5.0 mi SSW 5.8 mph - N/A   Overcast
3:45 PM 60.8 °F 57.2 °F 88% 30.10 in 4.0 mi SW 5.8 mph - N/A   Light Drizzle
4:08 PM 60.8 °F 57.2 °F 88% 30.12 in 2.0 mi SW 4.6 mph - N/A   Light Drizzle
4:45 PM 59.0 °F 59.0 °F 100% 30.11 in 3.0 mi SSW 3.5 mph - N/A   Light Drizzle
5:45 PM 59.0 °F 57.2 °F 94% 30.12 in 3.0 mi SSW 3.5 mph - N/A   Overcast
6:45 PM 57.2 °F 57.2 °F 100% 30.11 in 4.0 mi South 4.6 mph - N/A   Overcast
7:45 PM 57.2 °F 57.2 °F 100% 30.11 in 6.0 mi South 3.5 mph - N/A   Overcast
8:45 PM 57.2 °F 57.2 °F 100% 30.10 in 6.0 mi South 3.5 mph - N/A   Overcast
9:45 PM 59.0 °F 55.4 °F 88% 30.11 in 8.0 mi South 4.6 mph - N/A   Overcast
10:45 PM 59.0 °F 55.4 °F 88% 30.11 in 10.0 mi South 3.5 mph - N/A   Mostly Cloudy
11:50 PM 62.6 °F 53.6 °F 72% 30.11 in 10.0 mi SSW 6.9 mph - N/A   Overcast